Theta_e
323 321 321 321 321 324 332 343 349 350 348 347 348 347 345 344 345 340 340 339 343 344 345 344 345 344 344 343 345 343 339 342 341 342 345 343 344 343 344 341 340 342 341 342
319 321 322 322 324 325 330 349 351 350 347 347 348 347 347 344 344 343 340 340 342 343 346 345 345 344 343 343 345 344 342 341 342 345 346 346 343 343 345 344 342 338 343 342
319 320 323 324 324 324 347 350 349 350 348 344 347 348 346 344 343 342 343 341 341 343 345 345 345 344 344 343 344 343 343 342 341 344 344 345 345 344 346 346 344 342 339 344
317 319 321 321 322 331 348 348 341 343 348 352 346 352 348 344 343 342 342 343 342 342 343 344 345 345 344 344 343 343 343 345 343 342 344 344 344 343 346 344 345 344 341 343
316 318 318 319 320 333 345 340 346 349 348 348 348 352 346 345 345 342 340 342 343 340 343 344 344 344 346 343 342 343 341 344 341 340 341 343 344 344 345 344 344 344 342 347
319 321 319 318 327 337 340 343 346 347 345 349 347 352 352 347 343 340 339 342 342 340 343 343 344 344 346 343 343 343 344 343 342 339 341 341 342 344 345 345 346 344 344 342
320 320 319 323 343 343 337 336 348 350 349 347 344 347 344 342 340 340 340 341 342 341 343 345 344 346 346 345 344 343 343 343 341 345 342 344 344 345 345 344 345 344 346 344
320 321 320 322 330 343 338 339 345 351 351 351 345 348 345 341 341 340 340 341 341 343 343 344 344 344 346 345 344 343 343 341 341 342 345 344 345 346 347 347 345 347 345 344
321 322 323 322 324 338 332 337 336 342 344 347 347 345 346 347 347 344 341 340 342 344 343 344 344 345 346 345 345 344 344 341 342 341 343 342 343 347 347 344 347 346 348 348
323 323 322 324 324 324 322 325 333 333 346 348 351 349 349 348 348 345 341 339 342 344 344 344 344 345 344 344 345 346 346 343 338 342 345 343 346 347 344 344 344 349 349 348
321 322 323 323 324 323 323 324 324 323 333 344 351 348 343 344 346 344 341 339 340 344 344 344 344 344 345 346 346 347 346 345 338 343 344 344 345 347 345 346 345 349 346 349
323 319 323 324 322 322 321 323 321 324 326 331 337 335 345 343 345 342 343 342 342 341 345 344 344 345 345 347 347 347 347 346 338 338 341 344 345 343 348 349 348 347 348 347
323 319 322 323 324 323 325 326 321 318 316 320 325 329 345 340 338 340 339 340 342 342 343 344 344 343 345 345 348 349 348 346 343 340 342 340 339 340 342 342 343 346 345 346
324 319 321 323 325 324 326 329 335 320 318 319 321 341 343 343 342 339 340 341 342 342 343 343 345 344 345 346 348 349 349 347 345 343 346 348 344 344 344 346 346 343 343 346
323 325 324 324 329 330 336 338 340 341 338 321 323 341 340 340 339 336 338 341 344 347 346 346 342 345 345 346 345 346 347 348 344 344 344 347 346 345 348 347 348 349 348 346
321 326 330 331 332 332 336 335 336 341 343 345 343 343 337 337 334 335 338 338 342 346 348 347 346 346 346 346 346 347 345 345 345 345 346 347 347 344 346 346 344 348 349 349
323 327 328 333 332 332 336 333 334 339 340 339 338 335 335 333 331 333 336 342 343 345 348 344 344 346 347 347 347 346 344 345 343 343 344 341 345 345 344 343 342 342 344 346
322 322 325 328 328 335 331 331 329 336 340 336 337 334 332 334 338 342 342 343 339 342 344 344 344 344 345 344 345 344 343 343 342 339 344 345 345 343 342 343 344 343 345 344
319 320 325 327 329 332 332 332 330 329 335 336 339 344 342 340 340 338 339 340 342 342 343 344 345 344 341 341 341 340 341 341 341 341 342 343 341 341 343 343 342 339 338 338
321 319 323 325 328 332 331 328 327 329 336 334 339 341 341 339 338 338 336 338 341 340 342 344 345 344 344 340 341 345 344 343 343 343 342 342 342 341 341 341 341 341 341 341
323 321 322 326 329 329 327 327 328 332 334 335 335 335 336 337 336 337 335 335 338 340 342 343 344 345 345 339 341 344 344 342 341 340 340 341 340 340 340 340 340 339 339 340
322 323 324 326 327 329 326 326 328 328 333 333 329 332 338 338 337 336 335 335 335 337 337 339 341 342 343 344 344 343 343 337 341 342 342 341 340 338 338 338 336 336 337 338
321 322 325 326 327 325 326 328 330 329 335 334 334 335 338 337 335 334 332 333 334 334 335 335 336 337 337 337 338 340 340 341 340 339 339 339 339 338 338 337 336 338 338 338
322 323 322 324 324 326 324 325 325 326 331 334 335 335 333 335 336 333 331 331 330 329 329 331 332 333 334 335 335 336 336 336 336 337 337 337 337 337 337 337 337 337 335 333
322 323 321 322 325 326 324 324 324 325 326 333 335 333 333 333 334 332 331 330 328 328 327 327 326 324 324 326 329 331 332 332 332 333 334 334 333 333 335 335 335 335 334 335
323 319 322 323 325 323 323 322 323 323 327 330 332 332 331 330 332 332 330 329 328 327 324 321 318 315 314 314 314 315 316 317 321 326 328 329 329 328 328 328 329 328 327 326
Wind_Speed
5 4 6 8 7 6 5 8 10 4 3 1 3 3 4 5 11 18 27 19 33 36 34 32 28 26 23 22 23 20 27 22 23 19 14 17 18 13 11 10 11 13 13 9
6 4 10 7 8 7 9 9 8 6 2 4 3 5 5 2 4 5 5 27 32 34 39 36 32 28 24 22 20 24 20 22 26 18 17 18 19 16 11 10 9 11 12 8
7 9 11 9 10 10 2 8 13 1 3 4 3 4 4 2 5 6 7 7 31 41 42 38 34 29 26 23 23 22 22 22 22 22 20 18 19 18 17 14 9 7 11 10
6 16 12 8 11 5 3 5 14 15 9 3 2 3 4 12 10 4 13 9 15 36 42 39 36 32 28 23 23 21 18 21 20 25 23 20 19 19 21 15 10 9 10 13
9 7 4 7 10 9 6 8 7 16 6 2 6 1 4 8 13 15 15 19 12 33 44 41 38 31 28 23 25 24 20 18 19 23 23 25 21 17 16 14 10 12 12 14
8 10 5 7 5 13 21 16 13 3 1 3 6 4 4 7 22 15 11 18 14 34 44 42 37 33 28 27 25 23 22 19 22 20 25 26 22 18 18 15 15 14 14 15
8 6 5 7 14 7 13 9 3 2 2 3 5 3 6 7 6 17 19 23 25 28 38 43 38 37 33 30 26 21 23 23 23 22 25 22 23 19 17 18 18 17 15 15
2 8 2 3 9 12 8 5 6 5 4 1 1 4 5 3 19 37 38 32 31 30 37 41 40 36 36 33 26 24 23 23 22 22 21 23 21 17 15 18 17 13 12 13
2 5 5 2 4 13 6 2 8 7 2 3 2 7 9 1 6 14 22 32 36 34 31 36 40 39 37 34 31 27 23 23 24 22 21 20 19 18 16 15 18 15 12 13
1 4 4 6 2 4 9 6 4 2 6 4 4 1 9 10 2 7 15 26 36 38 32 29 38 40 37 35 32 28 26 22 24 25 24 23 21 18 17 18 20 15 13 12
3 2 7 4 2 7 0 1 3 4 5 5 5 6 12 18 11 15 22 29 34 40 34 35 34 37 38 35 34 30 31 26 26 27 26 25 23 19 17 15 18 15 15 13
3 3 3 7 8 9 5 8 6 5 7 2 3 5 6 8 11 15 12 21 32 37 32 28 36 40 38 39 37 34 35 28 25 25 26 24 22 19 18 16 15 16 14 15
4 3 4 10 8 9 6 5 3 1 3 3 4 5 3 1 7 20 12 3 18 28 31 30 32 36 42 39 34 37 37 30 23 25 24 21 18 19 19 15 14 13 16 16
7 2 5 5 7 4 7 11 9 2 3 2 5 3 4 8 2 10 17 2 4 15 16 26 27 38 37 37 28 31 33 28 23 25 24 20 19 17 17 14 11 14 14 13
4 2 4 5 4 8 12 12 16 7 5 5 3 5 4 4 5 6 13 8 9 4 17 28 39 42 48 46 46 36 32 29 25 27 24 24 21 19 20 20 18 16 14 14
4 2 4 3 6 7 12 19 12 9 11 6 11 7 5 7 9 8 7 12 13 7 12 27 40 47 47 47 44 40 33 30 26 29 22 22 25 23 18 18 19 18 19 17
3 3 3 2 4 3 7 7 10 5 10 1 4 1 5 6 11 11 12 13 8 9 15 15 22 43 43 43 42 39 25 28 22 25 20 17 26 27 24 20 23 24 21 16
2 2 2 3 4 3 5 4 7 6 8 10 11 8 9 9 12 14 11 10 15 17 13 10 19 26 33 32 32 32 32 32 31 20 25 17 17 19 19 25 25 24 20 20
4 4 3 3 2 3 5 2 1 4 5 4 6 11 15 18 16 16 13 13 13 12 19 29 23 24 23 23 20 22 26 22 23 23 20 18 16 15 13 12 16 21 22 19
2 7 4 3 3 2 6 3 5 2 3 9 3 9 9 4 3 2 5 9 12 15 17 18 23 22 18 13 14 15 17 20 20 20 18 17 18 17 16 16 15 15 19 20
4 4 4 2 1 3 6 12 1 5 5 6 5 6 4 4 6 12 7 10 13 11 13 14 15 25 22 19 20 22 12 11 16 17 19 17 14 13 12 11 11 12 13 15
3 4 2 2 4 1 8 7 5 4 14 14 11 4 17 20 20 13 10 12 12 15 13 11 12 14 16 15 14 16 14 13 17 23 20 17 15 12 10 10 10 9 8 9
1 5 5 5 5 7 8 7 13 13 15 12 11 7 13 17 17 16 14 11 12 13 13 12 11 11 10 7 7 15 16 18 16 11 13 14 13 12 11 11 12 12 12 11
3 4 3 3 3 4 12 17 16 20 14 5 10 12 5 9 10 10 13 12 12 10 11 11 11 11 13 11 11 9 10 12 12 14 19 20 19 14 14 15 14 13 11 10
4 9 6 3 1 6 7 14 12 13 17 12 9 9 6 5 8 9 8 10 9 8 6 5 6 9 11 11 10 9 9 10 12 14 14 14 12 13 15 13 15 15 13 13
9 6 5 5 16 8 11 15 14 12 15 14 13 11 10 8 8 7 7 6 5 5 6 5 5 6 8 9 10 11 10 9 9 9 10 10 10 10 11 12 10 8 8 8
Wind_Direction
265 78 202 208 193 202 219 213 190 144 222 202 141 285 155 60 201 183 186 166 156 160 171 172 167 165 165 166 164 158 162 173 172 165 176 185 175 161 157 158 169 184 181 167
8 246 237 209 234 247 250 149 83 52 210 328 161 239 286 155 244 181 160 165 160 161 168 171 171 174 178 178 176 166 170 177 178 172 162 163 180 173 175 164 161 173 188 175
186 235 236 240 256 236 55 141 127 251 196 1 86 301 267 201 222 256 246 173 176 168 169 174 176 180 181 184 184 184 177 181 198 189 185 172 175 177 187 180 191 185 179 181
226 252 240 235 243 154 152 215 145 175 168 222 168 239 207 249 261 246 248 231 199 170 177 178 182 183 186 191 195 191 192 195 200 196 199 193 187 181 183 188 197 191 187 182
250 262 250 242 239 136 163 69 143 155 178 140 211 236 254 199 244 249 232 229 221 180 180 183 187 189 189 190 194 194 198 200 194 189 200 198 195 192 198 197 186 192 185 185
236 241 178 221 319 129 137 92 49 56 94 237 196 235 235 185 214 226 221 232 233 184 183 189 190 189 187 190 193 198 196 194 191 189 198 202 202 198 202 209 202 200 205 204
332 290 267 130 78 67 114 99 72 320 249 231 173 213 253 230 202 218 224 204 210 186 184 188 189 190 189 189 190 198 195 196 193 195 191 203 193 198 202 206 208 211 215 215
257 328 151 253 148 166 186 156 145 211 197 98 77 245 258 153 228 216 221 198 199 183 174 187 191 194 193 191 192 198 200 197 195 196 197 198 201 199 201 209 212 212 214 214
244 268 327 269 226 141 232 199 153 106 20 104 210 304 292 11 355 183 190 175 186 190 183 186 191 194 194 200 197 202 202 201 199 199 197 197 200 211 220 210 207 207 213 217
270 287 268 286 311 253 149 184 109 21 149 159 147 236 263 297 108 150 163 177 180 192 195 192 196 196 201 209 205 209 209 202 199 197 200 198 206 205 199 199 204 214 221 219
28 109 289 13 32 229 329 298 71 131 145 151 142 239 225 228 191 168 170 174 180 188 200 203 208 203 204 212 210 210 211 205 200 198 201 202 200 203 203 208 206 212 221 212
310 132 312 257 287 251 177 189 145 131 273 187 177 260 177 226 148 152 148 170 177 192 203 214 204 207 204 204 213 214 213 204 202 202 200 201 202 208 211 212 215 222 224 229
326 357 13 347 346 6 41 345 355 88 85 217 145 262 348 332 38 69 34 37 194 190 197 210 215 214 213 207 210 213 209 203 203 204 197 195 199 209 213 215 219 225 231 233
41 119 143 188 236 226 332 5 6 121 112 223 213 205 269 219 38 75 49 60 202 210 213 213 209 212 206 197 197 209 208 204 203 205 200 198 196 199 199 197 202 217 229 238
84 271 208 206 331 32 57 29 24 25 293 165 248 176 215 41 56 65 52 73 111 164 200 213 221 210 200 203 206 203 202 200 202 207 211 214 205 208 211 213 216 216 226 235
16 290 327 36 14 53 52 34 24 16 359 45 85 68 36 71 43 2 358 27 49 163 189 209 206 200 194 200 194 192 197 201 200 213 212 218 215 209 206 232 230 227 224 227
68 42 22 257 331 76 42 349 14 49 25 36 71 357 94 43 60 62 54 75 80 160 170 195 190 182 180 183 186 185 203 210 221 228 227 240 226 228 249 236 237 236 231 228
93 7 125 228 352 120 229 305 30 51 41 68 85 102 112 112 97 78 46 35 61 88 177 216 211 183 179 179 186 199 202 213 225 224 232 224 228 236 239 236 243 225 227 228
235 121 57 112 87 102 333 336 31 48 326 342 138 124 120 110 82 51 66 80 89 107 163 200 198 180 173 179 197 201 198 204 206 215 233 230 229 231 231 235 233 226 239 235
22 75 112 59 82 179 214 233 122 101 30 292 137 147 155 155 72 165 104 90 108 117 137 161 160 179 177 184 191 194 197 191 196 202 214 226 232 232 232 233 232 227 222 225
359 21 101 85 88 289 253 272 235 105 187 265 161 143 162 164 184 156 114 99 118 131 127 140 159 182 186 186 203 197 185 167 194 227 221 214 209 209 213 215 216 222 223 220
191 122 134 101 42 203 352 290 193 183 164 176 170 126 121 131 133 126 103 103 111 119 123 133 152 160 159 163 182 192 193 196 201 199 205 199 209 210 211 200 193 186 191 193
317 179 181 158 197 230 338 96 118 114 177 176 155 142 138 139 140 130 117 113 112 111 109 116 128 128 130 148 185 198 184 185 197 192 186 196 213 205 195 187 192 190 195 203
239 162 110 103 256 194 132 110 92 74 71 117 159 139 159 136 124 119 111 125 124 113 115 121 119 121 126 135 148 168 173 170 176 186 176 179 193 200 195 190 190 196 192 191
200 146 149 270 89 211 140 108 99 84 70 120 131 134 144 139 141 144 127 128 128 125 108 96 104 120 127 132 142 149 160 179 187 187 187 193 202 209 202 188 180 186 195 196
188 166 159 208 180 159 146 119 114 114 92 131 147 139 134 131 165 163 157 152 155 127 120 124 128 131 138 143 146 145 149 154 166 177 189 194 196 198 206 211 211 199 193 170